S51FO-6 Weather Reports


time (UTC)temp
F
wind
direction
speed
knots
gust
knots
rain 1hr
in
rain 24hr
in
rain mn
in
humidity
%
barometer
mb
20260906033940 47 0.0 0.0 0.00 0.00 0.00 85
20260906032946 47 0.0 0.0 0.00 0.00 0.00 85
20260906031954 47 0.0 0.0 0.00 0.00 0.00 85
20260906030940 47 0.0 0.0 0.00 0.00 0.00 85
20260906025947 48 0.0 0.0 0.00 0.00 0.00 86
20260906024943 48 0.0 0.0 0.00 0.00 0.00 85
20260906023946 48 0.0 0.0 0.00 0.00 0.00 85
20260906022954 48 0.0 0.0 0.00 0.00 0.00 85
20260906021945 47 0.0 0.0 0.00 0.00 0.00 85
20260906020955 47 0.0 0.0 0.00 0.00 0.00 85
20260906015948 47 0.0 0.0 0.00 0.00 0.00 85
20260906014946 46 0.0 0.0 0.00 0.00 0.00 85
20260906013950 45 0.0 0.0 0.00 0.00 0.00 85
20260906012940 45 0.0 0.0 0.00 0.00 0.00 85
20260906011956 45 0.0 0.0 0.00 0.00 0.00 85
20260906010941 45 0.0 0.0 0.00 0.00 0.00 85
20260906004942 45 0.0 0.0 0.00 0.00 0.00 85
20260906003957 46 0.0 0.0 0.00 0.00 0.00 85
20260906002948 46 0.0 0.0 0.00 0.00 0.00 85
20260905234941 46 0.0 0.0 0.00 0.00 0.00 84
20260905233943 46 0.0 0.0 0.00 0.00 0.00 84
20260905232946 47 0.0 0.0 0.00 0.00 0.00 84
20260905231940 46 0.0 0.0 0.00 0.00 0.00 84
20260905225943 47 0.0 0.0 0.00 0.00 0.00 84
20260905224940 47 0.0 0.0 0.00 0.00 0.00 84
20260905223940 47 0.0 0.0 0.00 0.00 0.00 84
20260905222951 47 0.0 0.0 0.00 0.00 0.00 84
20260905221942 48 0.0 0.0 0.00 0.00 0.00 84
20260905220940 48 0.0 0.0 0.00 0.00 0.00 84
20260905215950 47 0.0 0.0 0.00 0.00 0.00 83
20260905214945 47 0.0 0.0 0.00 0.00 0.00 83
20260905213943 48 0.0 0.0 0.00 0.00 0.00 83
20260905212950 49 0.0 0.0 0.00 0.00 0.00 83
20260905211941 49 0.0 0.0 0.00 0.00 0.00 84
20260905210940 49 0.0 0.0 0.00 0.00 0.00 83
20260905205944 49 0.0 0.0 0.00 0.00 0.00 83
20260905204945 50 0.0 0.0 0.00 0.00 0.00 83
20260905203941 50 0.0 0.0 0.00 0.00 0.00 83
20260905202946 49 0.0 0.0 0.00 0.00 0.00 83
20260905193940 51 0.0 0.0 0.00 0.00 0.00 79
20260905191944 52 0.0 0.0 0.00 0.00 0.00 78
20260905190942 53 0.0 0.0 0.00 0.00 0.00 77
20260905185949 53 0.0 0.0 0.00 0.00 0.00 75
20260905184940 54 0.0 0.0 0.00 0.00 0.00 76
20260905183942 56 0.0 0.0 0.00 0.00 0.00 76
20260905182949 57 0.0 0.0 0.00 0.00 0.00 72
20260905181942 58 0.0 0.0 0.00 0.00 0.00 71
20260905180940 60 0.0 0.0 0.00 0.00 0.00 68
20260905174942 62 0.0 0.0 0.00 0.00 0.00 63
20260905173943 64 0.0 0.0 0.00 0.00 0.00 62
20260905165953 68 0.0 0.0 0.00 0.00 0.00 51
20260905164943 69 0.0 0.0 0.00 0.00 0.00 51
20260905162938 71 0.0 0.0 0.00 0.00 0.00 49
20260905154938 74 0.0 0.0 0.00 0.00 0.00 50
20260905152938 74 0.0 0.0 0.00 0.00 0.00 51
20260905145941 75 0.0 0.0 0.00 0.00 0.00 49
20260905144938 77 0.0 0.0 0.00 0.00 0.00 48
20260905142938 73 0.0 0.0 0.00 0.00 0.00 52
20260905140938 77 0.0 0.0 0.00 0.00 0.00 47
20260905135138 75 0.0 0.0 0.00 0.00 0.00 48
20260905134940 75 0.0 0.0 0.00 0.00 0.00 48
20260905133946 76 0.0 0.0 0.00 0.00 0.00 48
20260905132938 74 0.0 0.0 0.00 0.00 0.00 43
20260905131938 76 0.0 0.0 0.00 0.00 0.00 43
20260905131015 76 0.0 0.0 0.00 0.00 0.00 42
20260905130944 76 0.0 0.0 0.00 0.00 0.00 42
20260905125938 78 0.0 0.0 0.00 0.00 0.00 41
20260905124938 77 0.0 0.0 0.00 0.00 0.00 38
20260905124017 77 0.0 0.0 0.00 0.00 0.00 43
20260905123938 77 0.0 0.0 0.00 0.00 0.00 43
20260905121938 76 0.0 0.0 0.00 0.00 0.00 40
20260905120938 76 0.0 0.0 0.00 0.00 0.00 43
20260905115938 75 0.0 0.0 0.00 0.00 0.00 42
20260905114938 76 0.0 0.0 0.00 0.00 0.00 42
20260905113938 77 0.0 0.0 0.00 0.00 0.00 37
20260905112938 76 0.0 0.0 0.00 0.00 0.00 42
20260905112033 76 0.0 0.0 0.00 0.00 0.00 44
20260905111954 76 0.0 0.0 0.00 0.00 0.00 44
20260905111015 74 0.0 0.0 0.00 0.00 0.00 43
20260905110938 74 0.0 0.0 0.00 0.00 0.00 43
20260905104949 73 0.0 0.0 0.00 0.00 0.00 47
20260905103938 76 0.0 0.0 0.00 0.00 0.00 41
20260905102959 75 0.0 0.0 0.00 0.00 0.00 42
20260905101941 75 0.0 0.0 0.00 0.00 0.00 40
20260905100940 73 0.0 0.0 0.00 0.00 0.00 43
20260905094938 74 0.0 0.0 0.00 0.00 0.00 39
20260905093943 77 0.0 0.0 0.00 0.00 0.00 38
20260905092946 75 0.0 0.0 0.00 0.00 0.00 35
20260905091940 79 0.0 0.0 0.00 0.00 0.00 30
20260905084945 76 0.0 0.0 0.00 0.00 0.00 34
20260905083940 75 0.0 0.0 0.00 0.00 0.00 32
20260905082944 75 0.0 0.0 0.00 0.00 0.00 31
20260905081941 74 0.0 0.0 0.00 0.00 0.00 28
20260905080944 74 0.0 0.0 0.00 0.00 0.00 30
20260905075940 75 0.0 0.0 0.00 0.00 0.00 30
20260905074942 73 0.0 0.0 0.00 0.00 0.00 31
20260905073941 72 0.0 0.0 0.00 0.00 0.00 30
20260905072950 71 0.0 0.0 0.00 0.00 0.00 34
20260905071940 69 0.0 0.0 0.00 0.00 0.00 32
20260905065941 64 0.0 0.0 0.00 0.00 0.00 47
20260905064945 59 0.0 0.0 0.00 0.00 0.00 67
20260905063942 53 0.0 0.0 0.00 0.00 0.00 87
20260905061947 47 0.0 0.0 0.00 0.00 0.00 86
20260905055943 44 0.0 0.0 0.00 0.00 0.00 86
20260905054944 43 0.0 0.0 0.00 0.00 0.00 86
20260905053943 43 0.0 0.0 0.00 0.00 0.00 85
20260905052940 42 0.0 0.0 0.00 0.00 0.00 85
20260905051941 42 0.0 0.0 0.00 0.00 0.00 85
20260905044941 40 0.0 0.0 0.00 0.00 0.00 85
20260905043942 40 0.0 0.0 0.00 0.00 0.00 85
20260905040948 40 0.0 0.0 0.00 0.00 0.00 85